Fairbury, Nebraska, United States (68352)
Lat: 40.14N, Lon: 97.18W
Wx Zone: NEZ088
Local Info
Past Weather Observations for Today

NOTE: This archive is for the closest National Weather Service station to Fairbury. Information may differ from the station used for current weather conditions.

Click here for Long-term Archive

Time Weather Temperature Dewpoint Humidity Pressure Winds Precip Visibility
13:35
Clear
88°F / 31°C 63°F / 17°C 43% 29.92 in
(1013 mb)
S 9.2 mph
(S 15 kph)
- 10SM
13:15
Clear
88°F / 31°C 64°F / 18°C 46% 29.92 in
(1013 mb)
S 9.2 mph
(S 15 kph)
- 10SM
12:55
Clear
86°F / 30°C 66°F / 19°C 52% 29.95 in
(1014 mb)
S 9.2 mph
(S 15 kph)
- 10SM
12:35
Clear
86°F / 30°C 66°F / 19°C 52% 29.95 in
(1014 mb)
S 10.4 mph
(S 17 kph)
- 10SM
12:15
Clear
84°F / 29°C 66°F / 19°C 55% 29.95 in
(1014 mb)
S 10.4 mph
(S 17 kph)
- 10SM
11:55
Clear
84°F / 29°C 66°F / 19°C 55% 29.95 in
(1014 mb)
S 15 mph
(S 24 kph)
- 10SM
11:35
Clear
82°F / 28°C 66°F / 19°C 58% 29.95 in
(1014 mb)
S 13.8 mph
(S 22 kph)
- 10SM
11:15
Clear
82°F / 28°C 66°F / 19°C 58% 29.95 in
(1014 mb)
SSE 12.7 mph
(SSE 20 kph)
- 10SM
10:55
Clear
81°F / 27°C 66°F / 19°C 62% 29.98 in
(1015 mb)
SSE 11.5 mph
(SSE 19 kph)
- 10SM
10:35
Clear
79°F / 26°C 68°F / 20°C 70% 29.98 in
(1015 mb)
SSE 9.2 mph
(SSE 15 kph)
- 10SM
10:15
Clear
79°F / 26°C 68°F / 20°C 70% 29.98 in
(1015 mb)
SSE 10.4 mph
(SSE 17 kph)
- 10SM
09:55
Clear
75°F / 24°C 68°F / 20°C 78% 29.98 in
(1015 mb)
SSE 8.1 mph
(SSE 13 kph)
- 7SM
09:35
Partly Cloudy
Fog And Mist
75°F / 24°C 70°F / 21°C 83% 29.98 in
(1015 mb)
S 9.2 mph
(S 15 kph)
- 5SM
09:15
Overcast
Fog And Mist
72°F / 22°C 70°F / 21°C 94% 29.98 in
(1015 mb)
S 9.2 mph
(S 15 kph)
- 5SM
08:55
Overcast
Fog And Mist
72°F / 22°C 70°F / 21°C 94% 29.98 in
(1015 mb)
SSE 12.7 mph
(SSE 20 kph)
- 4SM
08:35
Overcast
Fog And Mist
70°F / 21°C 70°F / 21°C 100% 29.98 in
(1015 mb)
S 8.1 mph
(S 13 kph)
- 2SM
08:15
Overcast
Fog And Mist
68°F / 20°C 68°F / 20°C 100% 29.98 in
(1015 mb)
S 8.1 mph
(S 13 kph)
- 1SM
07:55
Mostly Cloudy
Fog And Mist
66°F / 19°C 66°F / 19°C 100% 29.98 in
(1015 mb)
S 8.1 mph
(S 13 kph)
- 1 1/2SM
07:35
Clear
Fog And Mist
66°F / 19°C 66°F / 19°C 100% 29.98 in
(1015 mb)
SSE 5.8 mph
(SSE 9 kph)
- 3SM
07:15
Clear
Fog And Mist
66°F / 19°C 64°F / 18°C 94% 29.98 in
(1015 mb)
SSE 3.5 mph
(SSE 6 kph)
- 3SM
06:55
Clear
Fog And Mist
64°F / 18°C 64°F / 18°C 100% 29.95 in
(1014 mb)
Calm - 3SM
06:35
Clear
Fog And Mist
64°F / 18°C 63°F / 17°C 94% 29.95 in
(1014 mb)
S 3.5 mph
(S 6 kph)
- 2 1/2SM
06:15
Clear
Fog And Mist
63°F / 17°C 63°F / 17°C 100% 29.95 in
(1014 mb)
SSE 3.5 mph
(SSE 6 kph)
- 2 1/2SM
05:55
Clear
Fog And Mist
63°F / 17°C 63°F / 17°C 100% 29.95 in
(1014 mb)
Calm - 4SM
05:35
Clear
Fog And Mist
63°F / 17°C 63°F / 17°C 100% 29.95 in
(1014 mb)
S 4.6 mph
(S 7 kph)
- 4SM
05:15
Clear
Fog And Mist
63°F / 17°C 63°F / 17°C 100% 29.95 in
(1014 mb)
S 3.5 mph
(S 6 kph)
- 3SM
04:55
Clear
Fog And Mist
63°F / 17°C 63°F / 17°C 100% 29.95 in
(1014 mb)
Calm - 3SM
04:35
Clear
Fog And Mist
64°F / 18°C 63°F / 17°C 94% 29.95 in
(1014 mb)
SSE 3.5 mph
(SSE 6 kph)
- 4SM
04:15
Clear
Fog And Mist
64°F / 18°C 64°F / 18°C 100% 29.95 in
(1014 mb)
S 4.6 mph
(S 7 kph)
- 4SM
03:55
Clear
Fog And Mist
64°F / 18°C 64°F / 18°C 100% 29.95 in
(1014 mb)
SSE 4.6 mph
(SSE 7 kph)
- 4SM
03:35
Clear
Fog And Mist
64°F / 18°C 64°F / 18°C 100% 29.95 in
(1014 mb)
S 4.6 mph
(S 7 kph)
- 4SM
03:15
Clear
Fog And Mist
63°F / 17°C 63°F / 17°C 100% 29.95 in
(1014 mb)
SSE 4.6 mph
(SSE 7 kph)
- 3SM
02:55
Clear
Fog And Mist
63°F / 17°C 63°F / 17°C 100% 29.95 in
(1014 mb)
SSE 3.5 mph
(SSE 6 kph)
- 2 1/2SM
02:35
Clear
Fog And Mist
63°F / 17°C 63°F / 17°C 100% 29.95 in
(1014 mb)
SSE 3.5 mph
(SSE 6 kph)
- 3SM
02:15
Clear
Fog And Mist
63°F / 17°C 61°F / 16°C 94% 29.95 in
(1014 mb)
Calm - 3SM
01:55
Clear
Fog And Mist
63°F / 17°C 61°F / 16°C 94% 29.98 in
(1015 mb)
Calm - 2 1/2SM
01:35
Clear
Fog And Mist
64°F / 18°C 63°F / 17°C 94% 29.98 in
(1015 mb)
Calm - 5SM
01:15
Clear
Fog And Mist
64°F / 18°C 63°F / 17°C 94% 29.98 in
(1015 mb)
Calm - 5SM
00:55
Clear
Fog And Mist
64°F / 18°C 63°F / 17°C 94% 29.98 in
(1015 mb)
SSE 3.5 mph
(SSE 6 kph)
- 5SM
00:35
Clear
Fog And Mist
66°F / 19°C 63°F / 17°C 88% 29.98 in
(1015 mb)
SSE 4.6 mph
(SSE 7 kph)
- 5SM
00:15
Clear
Fog And Mist
66°F / 19°C 63°F / 17°C 88% 29.98 in
(1015 mb)
SSE 4.6 mph
(SSE 7 kph)
- 5SM
Time Weather Temperature Dewpoint Humidity Pressure Winds Precip Visibility


Weather for websites

WeatherForYou.com, LLC is not responsible for any damages or problems caused by this service. Current weather conditions are obtained from the closest station including government and personal stations which may have varying degrees of accuracy. Weather forecasts are derived from the NOAA NDFD. Like all things, this site belongs to Jesus Christ... He just trusts us to maintain it. If you have any questions or comments email webmaster@weatherforyou.com

Copyright © 2015, WeatherForYou.com LLC. All rights reserved.